Weather History for Lexington, KY

Change the Weather History Date:

Wednesday, June 18, 2014

  Actual Average Record
Temperature  
Mean Temperature 81 °F 74 °F  
Max Temperature 90 °F 84 °F 99 °F (1944)
Min Temperature 71 °F 63 °F 50 °F (1960)
Degree Days  
Heating Degree Days 0 0  
Month to date heating degree days 0 8  
Since 1 June heating degree days 0 8  
Since 1 July heating degree days 4855 4608  
Cooling Degree Days 16 9  
Month to date cooling degree days 142 123  
Year to date cooling degree days 303 230  
Since 1 June cooling degree days 142 123  
Growing Degree Days 30 (Base 50)    
Moisture  
Dew Point 69 °F    
Average Humidity 70    
Maximum Humidity 90    
Minimum Humidity 50    
Precipitation  
Precipitation 0.00 in 0.15 in 4.99 in (1992)
Month to date precipitation 3.33 2.83  
Year to date precipitation 24.68 22.16  
Snow  
Snow 0.00 in 0.00 in - ()
Month to date snowfall 0.0 0.0  
Since 1 June snowfall 0.0 0.0  
Since 1 July snowfall 27.1 13.0  
Snow Depth 0.00 in    
Sea Level Pressure  
Sea Level Pressure 30.07 in    
Wind  
Wind Speed 8 mph (SW)    
Max Wind Speed 16 mph    
Max Gust Speed 19 mph    
Visibility 10 miles    
Events      
T = Trace of Precipitation, MM = Missing Value Source: NWS Daily Summary

Daily Weather History Graph

Daily Weather History Graph

Search for Another Location

Airport:

Trip Planner

Search our weather history database for the weather conditions in past years. The results will help you decide how hot, cold, wet, or windy it might be!

Date:

Astronomy

Jun. 18, 2014 Rise Set
Actual Time 6:15 AM EDT 9:03 PM EDT
Civil Twilight 5:43 AM EDT 9:35 PM EDT
Nautical Twilight 5:04 AM EDT 10:14 PM EDT
Astronomical Twilight 4:19 AM EDT 10:59 PM EDT
Moon 12:37 AM EDT (6/18) 12:32 PM EDT (6/18)
Length of Visible Light 15h 51m
Length of Day
14h 48m
Waning Gibbous, 63% of the Moon is Illuminated
Jun 18
Waning Gibbous
Jun 19
Last Quarter
Jun 27
New
Jul 5
First Quarter
Jul 12
Full

Hourly Weather History & Observations

Time (EDT) Temp. Heat Index Dew Point Humidity Pressure Visibility Wind Dir Wind Speed Gust Speed Precip Events Conditions
12:54 AM 75.9 °F - 69.1 °F 79% 30.07 in 10.0 mi SSW 8.1 mph - N/A   Clear
1:54 AM 75.9 °F - 69.1 °F 79% 30.06 in 10.0 mi SSW 9.2 mph - N/A   Clear
2:54 AM 75.0 °F - 68.0 °F 79% 30.05 in 10.0 mi SSW 8.1 mph - N/A   Clear
3:54 AM 73.0 °F - 68.0 °F 84% 30.06 in 10.0 mi SW 5.8 mph - N/A   Clear
4:54 AM 72.0 °F - 66.9 °F 84% 30.06 in 10.0 mi South 5.8 mph - N/A   Clear
5:54 AM 71.1 °F - 66.9 °F 87% 30.06 in 10.0 mi South 8.1 mph - N/A   Clear
6:54 AM 72.0 °F - 68.0 °F 87% 30.07 in 10.0 mi South 4.6 mph - N/A   Clear
7:54 AM 75.9 °F - 69.1 °F 79% 30.09 in 10.0 mi SSW 5.8 mph - N/A   Clear
8:54 AM 79.0 °F - 69.1 °F 72% 30.12 in 10.0 mi WSW 6.9 mph - N/A   Clear
9:54 AM 82.0 °F 86.3 °F 71.1 °F 69% 30.13 in 10.0 mi WSW 5.8 mph - N/A   Partly Cloudy
10:54 AM 84.9 °F 90.1 °F 71.1 °F 63% 30.12 in 10.0 mi West 6.9 mph 17.3 mph N/A   Clear
11:54 AM 84.9 °F 89.4 °F 70.0 °F 61% 30.10 in 10.0 mi West 9.2 mph - N/A   Mostly Cloudy
12:54 PM 87.1 °F 92.0 °F 70.0 °F 57% 30.10 in 10.0 mi WSW 5.8 mph - N/A   Scattered Clouds
1:54 PM 88.0 °F 92.9 °F 70.0 °F 55% 30.09 in 10.0 mi SW 8.1 mph - N/A   Clear
2:54 PM 87.1 °F 91.3 °F 69.1 °F 55% 30.07 in 10.0 mi South 11.5 mph - N/A   Clear
3:54 PM 90.0 °F 96.4 °F 71.1 °F 54% 30.04 in 10.0 mi South 12.7 mph - N/A   Clear
4:54 PM 89.1 °F 92.9 °F 68.0 °F 50% 30.02 in 10.0 mi SW 10.4 mph - N/A   Partly Cloudy
5:54 PM 89.1 °F 92.9 °F 68.0 °F 50% 30.02 in 10.0 mi SW 12.7 mph - N/A   Clear
6:54 PM 88.0 °F 90.7 °F 66.9 °F 49% 30.02 in 10.0 mi SW 10.4 mph - N/A   Clear
7:54 PM 86.0 °F 89.4 °F 68.0 °F 55% 30.04 in 10.0 mi SW 5.8 mph - N/A   Clear
8:54 PM 82.9 °F 85.8 °F 68.0 °F 60% 30.04 in 10.0 mi SSW 4.6 mph - N/A   Clear
9:54 PM 80.1 °F 82.7 °F 68.0 °F 67% 30.03 in 10.0 mi South 4.6 mph - N/A   Clear
10:54 PM 79.0 °F - 68.0 °F 69% 30.04 in 10.0 mi South 6.9 mph - N/A   Clear
11:54 PM 78.1 °F - 69.1 °F 74% 30.04 in 10.0 mi SW 6.9 mph - N/A   Clear